Wind_Speed
15 15 15 15 15 15 16 16 17 18 19 20 21 23 24 25 27 29 30 32 33 35 37 38 40 41 43 44 45 46 47 48 49 50 52 53 55 56 57 59 60 61 62 63 65 67 69 70 72 74 76 77 78 78 78 77 76 75 75 75 76 76 76 75 76 77 79 81 82 82 83 85 87 89 91 90 89 87 88 89 89 89 89 90 90 89 85
15 15 15 15 16 16 17 18 19 20 21 22 24 25 26 28 29 31 33 34 36 37 39 40 41 42 43 44 45 46 47 49 50 52 53 55 56 57 58 59 60 62 63 65 67 69 71 73 74 75 75 75 74 73 73 72 72 72 73 74 76 77 78 77 77 78 77 76 75 75 77 80 83 86 89 90 89 89 89 90 92 92 92 91 91 91 87
15 15 16 16 17 17 18 19 20 22 23 24 26 27 29 30 32 33 34 36 37 38 40 41 42 43 44 45 46 47 49 50 52 53 54 55 56 57 58 60 62 64 66 68 70 71 72 72 72 71 70 70 70 70 70 70 71 72 73 74 75 77 78 78 79 81 82 80 78 78 78 78 81 83 85 87 89 89 90 91 93 95 94 91 91 93 89
16 16 17 17 18 19 20 21 22 24 25 27 28 30 31 32 34 35 36 37 38 39 40 41 42 43 44 46 47 49 51 52 52 53 53 55 56 58 60 62 65 67 69 70 70 70 69 68 67 67 67 68 68 69 70 70 71 71 72 72 73 73 74 75 75 78 82 82 80 81 81 80 81 82 82 83 85 86 87 89 91 94 96 91 88 91 90
17 18 18 19 20 21 22 23 24 26 27 29 30 31 33 34 35 36 36 37 38 39 40 42 43 45 46 48 49 49 50 50 51 52 54 56 58 60 63 65 66 67 66 66 65 65 65 65 65 66 67 68 69 69 70 70 70 70 70 70 70 70 70 71 70 72 76 77 76 76 77 77 79 82 82 80 81 82 84 86 88 93 95 92 88 89 90
19 19 20 21 21 22 24 25 26 28 29 30 31 32 33 34 35 36 37 38 39 40 42 43 45 46 47 47 48 48 49 50 52 54 56 58 61 62 63 63 62 61 60 59 60 61 62 64 65 65 66 68 69 70 70 70 70 70 70 70 70 69 68 67 65 65 69 72 71 71 72 74 76 80 81 80 79 80 82 84 87 90 93 92 91 91 92
20 21 21 22 23 24 25 26 27 28 30 31 31 32 33 34 35 37 38 39 41 42 44 44 45 45 45 45 47 48 50 52 54 57 58 60 61 60 58 57 56 55 56 56 57 59 60 62 63 65 66 67 68 69 70 70 70 69 69 68 67 66 66 65 61 59 63 67 66 67 69 71 74 77 79 80 79 80 82 84 86 89 90 91 92 92 93
21 22 23 24 24 25 26 26 27 28 29 31 32 33 34 35 37 38 40 41 42 43 43 42 42 43 44 46 48 51 53 55 57 58 59 57 56 54 52 52 52 53 55 57 58 60 62 64 65 66 67 67 67 66 66 66 66 66 65 65 65 64 63 62 59 55 58 61 61 62 66 69 73 75 77 78 78 79 80 83 85 86 87 89 90 92 93
22 23 23 24 24 25 25 26 28 29 30 31 33 34 36 37 38 39 40 40 40 40 40 41 42 44 46 48 51 53 55 56 56 55 53 51 49 49 49 50 52 54 56 59 61 62 63 64 64 63 63 62 62 62 61 61 61 62 62 62 64 63 62 61 59 55 55 58 58 58 62 66 70 73 75 77 79 79 81 83 85 85 86 88 90 92 93
22 22 23 24 24 25 26 27 29 30 31 33 34 35 37 37 38 38 37 38 38 38 40 42 44 46 48 50 52 53 54 53 51 48 47 46 46 47 48 50 53 55 57 58 58 58 58 58 57 57 57 58 59 60 60 61 61 61 61 62 63 64 63 63 63 58 56 58 58 57 60 64 68 72 75 78 80 81 82 82 83 83 86 88 90 92 94
22 22 23 24 25 26 27 28 30 31 33 34 34 35 35 35 35 35 35 37 38 40 42 44 46 48 50 51 52 51 49 46 44 43 43 44 46 47 50 51 53 54 54 54 54 54 54 55 55 55 56 58 61 62 63 65 65 65 65 66 66 66 66 66 67 65 62 61 61 59 60 64 68 72 76 79 82 84 85 84 83 84 87 90 92 93 95
22 23 24 25 26 27 29 30 31 32 32 32 31 31 32 32 34 35 36 38 41 43 44 46 48 49 50 49 48 45 43 41 41 42 43 45 47 48 50 50 50 51 51 52 53 54 55 56 57 58 59 62 65 66 68 70 70 70 71 71 70 71 71 71 72 71 69 67 67 65 63 65 70 73 75 79 82 85 86 85 85 86 89 91 92 93 94
23 24 25 26 28 29 30 29 29 28 28 28 29 30 32 33 35 37 39 41 43 44 45 47 48 48 46 44 42 40 40 40 41 43 44 46 47 48 48 49 50 51 52 53 54 55 56 58 60 62 63 66 69 70 72 75 75 74 76 77 76 76 77 76 76 76 75 72 72 73 70 69 72 74 75 78 82 85 86 85 84 87 90 92 93 93 94
24 25 26 27 27 26 25 25 24 25 26 28 30 32 33 35 37 39 41 43 44 46 46 46 45 43 41 39 38 38 39 40 42 43 45 46 47 48 49 50 51 53 54 55 56 56 57 59 61 63 63 66 69 70 73 76 76 77 79 81 81 81 82 81 79 79 80 78 76 76 75 72 73 75 77 81 85 89 92 91 90 91 95 97 98 98 98
24 24 23 23 22 21 22 23 24 26 28 30 32 33 35 37 39 42 43 44 45 45 44 42 40 38 37 37 37 38 39 41 42 44 45 46 48 50 51 53 54 55 57 58 59 60 61 62 65 66 65 67 68 69 72 75 77 79 82 83 83 83 84 85 84 82 84 84 81 81 81 79 78 79 79 83 88 91 94 95 95 96 98 100 101 101 100
19 19 18 19 19 21 22 24 26 28 30 31 33 35 37 40 41 43 44 44 43 42 40 38 37 36 36 37 37 39 40 42 43 44 46 48 51 53 54 55 57 59 60 62 64 66 67 70 73 75 75 77 76 75 77 79 78 80 83 83 84 84 84 86 86 84 86 87 86 86 88 86 86 85 83 84 88 92 95 96 96 95 97 98 99 98 97
15 16 17 19 21 22 24 26 28 30 31 32 35 37 39 41 42 42 42 42 40 38 37 36 36 36 36 37 38 39 41 42 44 46 49 52 54 56 57 59 61 63 65 67 69 73 75 77 79 81 82 84 84 82 84 85 83 83 85 85 85 86 86 87 88 87 87 89 87 87 90 91 92 92 90 89 91 94 97 98 97 95 95 96 97 98 97
17 18 19 21 22 24 26 27 29 30 32 34 37 39 41 41 41 40 40 39 37 36 36 36 36 36 36 37 39 40 42 44 46 49 52 55 57 59 61 62 65 67 69 72 74 77 80 81 83 84 85 87 88 86 89 92 90 89 90 90 89 90 90 90 91 89 89 91 90 90 92 94 95 96 96 96 96 97 99 100 101 100 101 101 101 101 101
19 19 21 22 23 25 26 28 30 32 34 37 39 40 40 39 38 37 37 36 35 35 35 35 36 36 37 38 40 42 44 46 49 52 55 58 60 62 64 66 69 71 74 76 78 80 82 84 86 87 88 90 90 88 90 96 96 96 97 96 96 96 94 93 94 93 93 94 94 93 94 96 97 99 100 101 102 104 105 106 106 107 107 107 106 105 104
20 21 22 23 24 25 27 29 31 34 36 38 39 39 38 36 36 36 35 34 33 34 34 35 36 37 38 39 41 43 45 48 52 55 58 61 63 65 67 69 71 74 76 78 80 82 84 86 89 91 91 93 93 91 91 96 100 102 103 102 102 102 100 98 98 97 96 96 97 98 99 101 103 105 105 106 108 111 112 112 111 110 110 109 107 105 104
20 21 22 23 24 26 28 31 33 35 37 38 37 36 34 34 35 35 33 32 32 33 34 34 35 36 38 40 42 45 47 51 54 57 60 63 65 68 70 71 74 76 78 80 82 84 86 88 91 94 95 96 97 97 97 98 100 103 106 106 106 106 106 104 103 102 102 102 102 102 104 107 110 111 111 111 111 112 112 111 110 108 106 105 103 100 98
21 22 23 24 25 27 30 33 35 36 36 35 33 32 33 35 34 32 31 32 32 33 33 34 35 37 39 41 44 47 50 53 57 60 62 65 68 70 72 74 77 79 81 83 86 88 90 92 94 97 99 100 101 101 102 104 105 105 107 109 109 109 110 109 108 108 108 108 106 103 103 106 109 109 108 107 105 104 103 103 102 100 99 97 96 93 90
22 23 24 25 26 29 32 34 36 36 34 32 31 32 33 34 32 31 31 31 32 32 34 35 36 38 40 43 46 49 52 56 59 62 65 67 70 72 74 77 79 82 84 87 89 91 93 95 97 99 102 104 105 105 106 108 109 109 109 110 111 112 112 111 110 108 107 105 102 98 96 97 99 100 101 101 100 98 97 96 95 94 92 90 89 88 85
23 24 25 26 28 30 33 35 35 34 31 30 31 33 34 33 31 30 31 31 32 34 35 37 38 40 42 45 48 51 54 57 60 63 66 68 71 73 76 79 81 84 87 89 91 94 95 97 99 102 105 107 110 111 111 112 114 114 112 111 111 112 111 109 107 105 103 101 98 95 93 93 96 96 96 97 95 92 91 91 89 88 86 84 83 82 80
25 26 26 27 30 32 34 35 33 31 29 29 32 34 34 32 31 30 31 32 33 35 37 39 40 42 44 46 50 53 56 59 61 64 67 69 72 75 77 80 83 86 89 91 93 95 97 100 102 104 107 110 112 114 116 117 118 119 117 116 114 113 112 109 106 103 103 101 99 97 93 90 91 91 90 90 88 84 84 84 84 82 81 78 76 76 76
26 27 28 30 32 34 34 34 32 30 29 30 33 35 35 33 31 31 31 33 35 37 39 41 42 43 46 48 51 54 57 60 62 65 67 70 73 76 79 82 85 88 90 92 94 97 99 102 104 106 108 111 114 116 119 120 121 122 121 119 118 116 115 113 108 105 103 99 97 96 92 87 87 89 91 92 90 86 84 84 83 81 79 75 73 72 73
27 28 30 32 34 35 34 33 31 29 29 32 34 35 35 34 32 31 32 34 36 38 40 42 43 44 46 49 52 55 58 61 63 65 67 70 74 77 80 83 86 88 91 93 95 98 101 103 105 107 110 112 115 118 120 121 122 123 122 120 119 119 118 116 112 108 106 103 102 103 102 99 96 98 100 101 98 93 90 88 84 81 79 76 72 69 68
28 30 31 33 35 35 34 32 29 29 31 33 35 35 35 34 33 32 33 35 37 39 41 43 44 46 48 51 54 56 59 61 63 66 68 71 75 78 81 84 86 89 92 94 96 99 102 104 106 108 111 113 115 118 120 122 123 123 122 121 120 119 119 119 117 116 114 111 109 110 111 109 106 105 106 106 103 99 95 92 87 83 81 78 74 69 66
30 32 33 34 35 35 34 31 29 29 32 35 36 35 35 35 34 33 34 36 38 40 42 44 45 47 49 52 55 57 60 62 64 67 69 73 76 79 82 84 87 90 93 95 97 100 102 105 107 109 111 113 116 118 120 122 123 124 123 121 119 119 119 120 121 120 119 116 113 112 112 112 110 108 108 108 106 102 98 94 89 86 83 80 76 72 68
32 34 35 35 35 35 33 30 29 31 34 36 37 36 34 35 35 34 34 37 39 41 43 45 46 48 50 53 56 58 61 63 65 68 71 74 78 81 83 86 89 91 93 95 98 100 103 105 107 110 112 114 116 118 121 122 124 125 123 120 118 117 117 118 119 119 119 117 114 112 111 111 109 107 106 105 103 99 95 91 88 85 83 80 76 73 70
34 35 36 36 35 35 33 30 30 33 35 37 38 36 34 34 35 35 35 37 40 41 43 45 47 49 51 54 57 60 62 65 67 70 73 76 79 82 85 87 90 92 93 95 98 101 103 105 107 109 112 114 117 119 121 123 125 125 122 118 116 114 114 114 114 115 116 116 115 111 109 106 104 103 102 100 98 95 91 86 84 82 81 78 76 73 72
36 37 36 35 35 34 32 30 32 35 37 38 39 38 36 35 35 35 36 38 40 41 44 46 47 50 53 56 59 61 63 66 69 72 75 78 80 83 86 88 90 92 94 96 98 101 103 105 107 109 112 114 117 120 122 124 125 125 122 118 114 112 111 111 112 113 114 115 115 114 111 107 105 105 105 103 100 96 90 84 80 79 78 76 74 72 72
37 37 35 34 34 32 31 31 34 36 37 38 40 40 39 38 36 36 37 39 40 42 44 46 48 51 55 57 60 62 64 67 70 74 76 79 81 83 85 88 90 92 94 96 98 101 103 105 107 109 111 114 117 120 122 125 126 126 124 120 117 114 111 109 109 111 111 111 111 113 114 112 109 107 106 104 99 95 90 84 80 77 75 72 70 68 68
36 35 34 33 32 31 31 33 35 36 36 38 40 41 40 39 37 37 38 40 41 43 45 47 50 54 57 59 61 64 66 69 71 73 76 78 80 82 85 87 90 92 94 96 99 101 103 105 107 109 111 114 117 120 122 125 127 127 124 121 118 116 112 107 104 105 107 108 107 108 110 110 108 105 102 98 94 88 85 83 80 76 73 70 67 65 65
35 34 32 31 30 31 33 34 35 36 37 39 40 40 40 39 38 38 39 40 42 44 46 49 53 55 58 60 63 66 68 70 72 74 76 78 81 83 85 87 90 92 94 97 99 102 104 106 108 110 112 115 118 121 123 126 128 126 123 121 119 117 115 111 106 106 109 110 108 105 105 105 105 102 100 96 91 85 80 78 77 74 72 69 66 64 64
33 31 30 30 31 33 33 34 35 36 38 38 39 39 38 38 38 38 40 41 43 46 49 52 55 56 58 60 63 66 68 70 73 75 77 79 82 84 86 88 91 93 95 98 100 103 105 107 108 110 113 116 119 122 124 127 128 126 123 121 120 120 120 119 116 114 114 113 110 105 101 99 99 98 97 94 89 83 78 75 73 70 68 67 65 63 62
30 29 30 31 33 33 34 35 36 37 37 37 38 38 37 37 38 39 40 43 46 49 52 55 56 58 60 61 63 66 69 71 73 76 78 80 82 85 87 89 91 93 96 99 101 103 105 107 109 111 114 117 119 122 125 128 129 128 126 125 124 124 125 125 124 121 118 116 112 106 99 93 90 89 89 87 84 80 75 72 69 67 65 63 62 61 60
28 30 32 33 34 34 35 36 36 36 37 37 37 37 37 37 39 40 43 46 49 52 55 56 58 60 63 65 67 68 70 73 76 78 79 81 83 86 88 90 92 95 97 100 102 104 106 108 110 112 114 117 120 122 125 127 129 129 129 128 128 128 128 128 128 126 124 122 119 115 108 100 92 87 84 82 79 76 74 71 68 66 65 64 62 61 60
30 31 33 33 34 34 35 36 36 37 37 36 36 36 37 39 41 44 47 49 52 54 55 57 59 62 65 67 70 71 73 75 77 79 81 83 85 88 90 92 95 97 99 101 103 105 106 108 111 113 115 118 120 122 125 127 129 130 131 130 130 129 128 128 129 129 128 126 124 121 117 111 103 95 89 83 78 74 73 72 69 66 65 65 64 62 60
31 32 33 33 34 34 35 35 35 35 35 35 36 38 40 42 45 47 49 51 53 55 57 59 62 64 66 68 71 73 75 76 78 80 82 85 87 90 93 95 96 98 100 102 104 106 108 110 112 114 116 118 120 123 125 126 129 131 132 132 130 128 126 126 127 127 127 125 122 118 115 111 106 100 94 88 82 76 73 71 69 67 65 64 64 63 61
30 31 32 33 33 33 33 33 33 34 35 37 39 41 43 45 48 49 51 53 55 57 60 62 64 67 69 70 72 74 76 78 79 81 84 87 89 92 95 97 98 100 101 103 105 107 109 111 113 115 117 119 121 123 125 126 128 131 133 133 130 127 124 123 123 124 125 123 119 114 110 108 104 99 94 89 85 80 76 72 69 67 65 64 63 62 61
29 29 30 30 30 30 31 32 34 36 37 39 42 44 46 48 50 52 54 56 58 60 63 65 67 68 70 72 74 76 77 79 80 83 86 88 91 94 96 98 100 101 102 104 107 109 111 113 115 117 119 120 123 125 126 127 128 130 133 133 130 127 125 124 123 122 123 122 118 113 109 106 103 100 94 89 84 81 78 75 71 68 67 65 63 62 61
26 26 27 28 29 30 32 35 37 39 40 43 45 47 50 52 54 56 58 59 61 64 66 68 69 71 72 74 76 78 80 81 83 85 87 90 93 95 97 99 101 102 104 106 108 110 112 114 116 118 120 122 124 126 127 128 128 129 130 132 131 127 125 125 124 122 121 120 117 112 108 105 102 99 95 90 85 80 78 76 73 71 70 68 66 63 61
25 26 28 30 32 34 35 38 40 42 45 47 49 51 53 55 57 59 61 63 65 66 67 69 70 72 74 76 79 80 82 83 84 86 89 91 94 96 98 100 102 104 105 107 109 111 113 115 117 120 122 123 124 126 128 129 129 129 129 130 130 127 125 125 124 122 120 118 115 110 106 102 100 97 94 90 86 81 77 74 72 71 71 70 69 67 64
28 30 32 34 36 38 39 42 44 46 49 51 53 55 57 59 60 62 64 65 67 67 68 69 71 73 75 77 80 82 83 85 86 88 90 93 95 97 99 101 103 104 106 107 109 111 114 116 118 120 122 123 125 127 129 130 131 130 130 131 130 127 125 125 125 122 119 118 115 109 104 101 98 95 92 89 86 82 78 74 71 69 68 68 69 69 67
31 33 35 38 40 42 44 46 48 50 52 54 56 58 60 61 62 64 65 66 67 68 69 70 73 75 77 79 81 83 85 87 88 90 92 94 96 98 99 101 103 105 106 108 110 112 115 117 119 121 124 125 126 127 129 131 132 132 132 132 131 128 126 126 125 123 120 117 113 108 104 101 99 96 92 87 84 82 79 75 73 70 69 67 66 66 66
35 37 39 41 43 45 46 48 50 52 54 56 58 60 61 62 63 64 65 67 68 70 71 73 75 77 79 81 84 86 88 89 91 92 94 96 98 99 100 102 104 105 107 109 111 114 116 118 120 123 125 126 127 128 130 131 133 133 133 133 131 129 127 127 126 124 121 117 113 108 104 101 99 95 91 86 83 81 78 75 73 70 69 68 66 64 63
38 39 41 42 44 45 47 49 51 53 55 57 59 61 63 64 66 67 68 70 72 73 75 77 79 80 82 84 86 88 90 91 93 94 96 98 99 100 101 102 103 105 108 110 113 115 118 120 121 124 126 127 128 129 130 132 133 134 134 133 132 129 127 127 127 125 122 118 113 108 104 101 98 95 90 85 82 79 77 75 72 70 69 67 66 64 63
39 40 42 43 44 46 48 50 52 54 56 59 60 62 65 67 68 70 71 73 74 76 78 80 81 83 84 86 88 89 91 92 94 95 97 98 100 101 102 103 103 105 108 111 114 117 119 120 122 125 126 128 129 130 131 132 133 134 135 134 132 130 128 128 127 125 122 118 113 109 104 101 98 95 90 85 80 78 76 74 72 70 70 69 68 66 64
43 44 46 48 49 50 52 54 56 58 60 61 63 65 67 69 70 72 73 74 76 77 79 81 82 84 85 87 88 90 91 92 94 95 97 99 100 101 103 104 105 107 109 112 115 118 120 121 123 125 126 128 129 130 131 132 133 134 135 135 133 131 130 129 127 125 122 118 113 108 104 100 98 94 90 84 80 77 76 75 72 70 70 69 69 67 65
48 49 51 53 55 56 58 60 62 65 66 67 67 69 71 72 73 75 76 77 78 79 80 82 83 85 86 88 89 90 91 92 94 96 98 99 100 102 103 105 106 108 110 112 115 118 119 121 123 125 127 128 129 130 131 132 134 135 136 135 134 132 130 128 126 123 121 117 113 108 103 99 97 94 90 85 80 77 76 75 73 71 70 69 68 67 65
50 51 53 55 57 59 61 63 65 68 69 71 72 74 76 77 78 80 80 81 82 83 84 85 86 87 88 89 90 91 92 93 94 97 99 100 101 103 104 105 107 109 111 113 115 117 119 120 123 125 127 128 130 131 132 133 134 135 135 135 133 132 130 128 125 122 119 116 112 107 102 98 94 92 89 84 79 75 72 71 70 69 68 67 66 66 65
Wind_Direction
224 230 235 241 247 252 258 263 268 273 276 280 283 286 289 292 293 295 297 298 300 302 303 304 305 306 307 307 308 308 307 307 307 307 307 307 308 308 308 308 308 308 308 309 309 309 310 310 310 309 309 309 309 310 310 311 311 311 311 311 311 311 311 311 311 311 311 312 313 314 314 314 313 313 312 313 314 315 314 313 313 313 314 314 315 316 317
236 241 246 252 257 263 268 272 276 280 283 286 288 291 293 294 296 298 299 301 302 303 304 305 306 307 307 307 307 307 307 307 307 308 309 309 309 309 309 309 309 310 310 310 310 310 310 310 310 310 311 312 312 312 313 313 313 313 313 313 313 313 313 313 313 312 310 310 311 312 313 314 314 313 314 315 316 316 315 315 315 315 315 316 316 316 316
246 251 257 262 267 272 276 280 283 285 288 290 291 293 295 296 297 299 300 302 303 304 305 305 306 306 306 307 307 307 308 309 309 310 310 310 310 310 310 310 311 310 310 310 310 310 311 312 313 314 314 315 314 314 314 314 314 314 314 315 315 315 315 316 316 315 313 314 315 315 316 316 315 314 315 316 317 317 315 315 315 314 315 316 315 313 314
254 259 264 268 273 277 280 282 285 288 290 292 293 295 296 298 300 301 302 303 304 305 305 306 306 307 307 308 308 309 310 310 311 311 311 310 310 311 311 311 311 311 312 313 313 314 315 316 317 317 316 316 315 315 315 315 316 316 316 317 316 317 317 318 320 319 319 320 322 321 320 318 316 315 316 316 316 314 313 313 313 312 313 314 312 310 309
258 263 267 271 275 278 281 285 287 290 292 293 295 297 298 300 302 303 304 304 305 306 306 307 307 308 309 309 310 311 311 311 311 311 311 311 311 312 312 312 313 314 315 316 317 318 318 319 319 318 318 318 318 318 318 318 318 319 319 319 319 319 321 322 324 322 320 321 322 320 319 317 315 315 315 314 313 311 311 311 310 310 312 312 310 307 306
262 266 270 274 277 281 284 287 289 292 294 296 297 299 301 302 303 304 304 305 306 306 307 307 308 309 310 311 311 311 311 311 311 311 311 312 312 313 314 315 316 317 318 319 319 320 320 320 320 321 321 320 320 321 321 321 322 323 323 322 322 322 323 323 324 322 319 320 320 319 317 316 314 314 313 313 312 311 310 310 310 310 310 310 309 307 306
267 271 274 278 281 284 286 289 292 294 296 298 300 301 302 303 304 304 305 306 306 307 308 309 310 310 311 311 311 311 311 311 311 312 313 314 314 316 317 318 319 319 320 320 320 321 321 322 323 323 323 323 323 324 324 324 324 324 323 322 322 322 322 321 322 321 318 318 319 318 317 315 313 313 313 313 313 313 312 311 310 310 309 309 308 307 307
271 274 277 280 283 287 290 293 296 297 298 300 301 302 303 304 305 305 305 306 307 308 309 310 311 311 311 311 311 311 312 312 313 314 315 317 318 319 320 320 321 321 321 322 324 325 326 326 327 327 327 326 325 325 324 323 323 322 322 321 320 321 321 320 320 320 318 317 318 318 317 316 315 314 314 314 314 313 311 309 309 309 309 308 307 307 306
274 277 281 285 289 292 295 297 298 299 299 300 302 303 303 304 304 305 306 306 308 309 310 310 311 311 311 312 312 312 313 315 316 317 318 319 320 321 321 322 322 324 326 328 330 331 331 330 330 329 327 325 324 323 323 322 323 324 324 324 324 324 324 322 320 320 319 317 318 318 317 317 317 316 314 313 312 310 310 309 310 310 310 308 307 306 306
280 284 289 292 294 295 297 297 298 298 299 300 301 302 303 303 304 306 307 308 309 309 310 311 311 312 312 313 313 314 316 317 319 320 320 321 321 322 323 325 327 329 331 332 333 333 332 330 329 328 327 326 326 327 328 328 329 331 331 330 329 328 327 325 322 322 321 319 319 320 319 318 316 315 313 312 311 311 310 310 311 311 310 309 307 306 306
287 290 291 293 294 295 296 296 296 297 299 300 301 301 303 304 306 307 307 308 308 309 310 312 313 313 313 314 316 317 319 320 320 321 321 322 323 325 327 329 331 332 333 333 333 333 332 332 331 331 332 333 334 335 336 336 337 338 337 336 335 333 332 330 327 325 324 323 321 322 321 319 317 316 315 315 315 314 313 313 313 313 312 310 309 308 308
288 289 291 292 293 293 293 294 296 297 299 299 300 302 304 305 306 307 307 307 308 310 312 313 314 315 316 317 319 320 321 321 322 322 323 325 327 328 329 330 331 331 332 332 333 334 334 334 335 337 339 340 341 341 342 342 342 343 342 340 339 338 336 335 332 329 328 326 324 323 323 322 321 320 320 320 319 317 315 315 315 314 312 310 309 309 308
287 288 289 290 290 291 293 295 296 297 299 300 302 304 305 306 306 307 307 308 310 312 314 315 316 318 319 320 321 322 322 323 324 325 327 328 328 328 329 329 330 331 332 332 334 335 336 338 340 342 344 345 345 345 346 345 345 345 344 342 342 341 340 338 336 332 330 328 327 326 326 326 325 323 322 320 318 315 313 313 314 313 311 310 310 310 311
285 285 286 287 289 292 294 295 296 298 300 302 304 305 306 307 307 307 309 312 313 315 316 318 320 321 322 322 323 324 324 325 327 327 328 328 328 328 329 330 332 332 333 334 335 336 338 340 342 343 344 345 345 346 346 346 345 345 345 344 344 343 342 339 337 335 332 330 329 328 327 326 325 323 323 322 320 318 317 317 317 317 315 315 315 315 315
280 282 284 287 290 292 293 295 297 300 302 305 307 308 308 308 309 311 314 315 316 318 320 322 322 323 323 324 325 326 326 327 327 327 328 329 330 330 332 333 334 335 336 337 338 338 340 341 342 343 343 344 344 345 346 346 346 346 346 346 345 344 343 341 339 337 334 332 332 330 328 328 327 326 326 326 324 322 321 321 321 321 319 318 317 317 316
277 281 285 287 289 291 294 297 300 303 306 308 309 309 309 310 313 316 317 318 319 322 324 324 324 325 326 327 327 327 327 328 328 329 330 331 332 333 334 336 337 338 339 340 341 342 343 345 345 346 346 345 346 347 347 346 346 347 346 346 345 344 343 341 340 339 337 335 335 334 332 332 331 329 328 328 326 324 323 322 322 321 319 317 316 316 316
274 279 282 286 290 293 297 301 305 308 310 310 310 311 312 315 318 319 319 321 324 325 326 326 327 328 329 329 328 328 329 330 331 333 334 334 335 336 338 339 340 341 342 343 344 345 346 347 347 347 347 347 347 348 348 346 346 347 346 346 345 345 344 342 341 341 339 337 336 336 334 334 333 331 330 330 329 327 325 322 321 320 318 318 318 318 319
272 277 283 288 293 298 303 307 310 311 311 311 313 315 317 319 321 321 323 325 327 328 329 330 331 330 330 329 329 330 332 333 334 336 337 337 338 340 341 342 343 344 344 345 346 347 347 347 347 347 347 347 347 348 348 347 346 347 347 346 346 346 345 344 342 342 341 339 338 338 337 336 335 334 333 333 331 328 325 323 322 323 322 323 323 323 323
275 281 288 293 299 304 309 312 312 312 313 315 317 319 321 323 323 325 327 329 330 331 332 332 331 330 330 331 332 334 335 337 338 338 339 340 341 342 343 344 345 345 345 346 346 347 347 347 347 347 347 347 347 348 349 348 347 348 348 347 347 346 346 346 344 343 343 341 339 339 338 337 337 336 335 335 332 329 327 326 326 327 326 326 326 325 325
281 288 294 300 306 310 312 312 312 314 317 320 322 323 324 325 326 328 329 331 332 333 332 332 331 331 332 334 335 337 338 339 340 341 341 342 343 344 345 345 345 346 346 346 346 347 347 347 347 347 347 347 347 348 350 349 349 349 348 348 348 347 347 347 346 344 343 342 341 342 341 340 339 338 337 336 335 332 330 329 328 328 327 327 326 325 324
289 296 301 306 310 312 313 314 315 318 321 323 324 325 326 327 328 329 330 332 333 332 331 331 331 332 334 336 337 338 340 341 341 342 343 343 344 344 345 345 345 345 346 346 347 347 347 347 347 347 347 347 347 348 349 350 350 350 348 347 348 347 347 348 347 346 345 344 344 345 344 343 342 340 339 338 336 333 330 328 327 327 326 325 324 324 323
296 300 304 309 312 313 315 316 318 321 323 324 325 326 327 328 328 330 332 333 332 330 330 330 332 333 336 337 339 340 342 342 343 343 344 344 344 345 345 346 346 346 346 347 347 347 347 347 347 347 347 347 348 348 349 349 350 350 349 348 348 348 348 348 348 347 347 346 346 346 346 344 342 340 338 335 333 329 326 325 324 324 324 323 322 322 322
299 303 307 311 313 315 317 319 321 323 324 325 325 327 327 328 329 331 333 332 331 330 330 331 333 335 337 339 341 342 344 344 344 344 345 345 345 345 346 346 347 347 347 347 347 347 347 347 347 347 347 347 347 348 349 349 349 349 349 348 348 348 348 348 348 347 346 345 345 345 345 342 339 337 335 332 329 327 324 324 324 324 324 323 323 322 323
301 305 309 312 315 317 319 320 322 324 324 325 326 328 328 329 330 331 331 330 331 331 331 332 335 337 339 341 343 344 345 345 345 345 345 345 346 346 346 347 347 347 346 346 347 346 346 346 346 346 347 347 347 347 348 349 348 348 348 348 347 347 347 348 348 346 345 344 343 343 344 342 338 335 332 330 327 326 325 325 325 325 325 325 324 324 324
303 307 311 314 316 318 319 321 324 324 323 324 326 328 329 329 329 329 330 331 332 332 332 334 336 338 341 343 344 345 345 345 345 346 346 346 346 346 347 347 346 346 346 346 346 345 345 345 345 346 346 346 347 347 348 348 348 347 347 347 347 346 346 347 347 346 345 345 343 342 342 341 336 332 329 327 325 325 327 327 328 327 326 326 326 325 325
305 309 313 316 318 319 321 323 325 323 322 324 326 328 328 327 327 328 329 332 333 334 334 336 338 340 342 344 345 345 345 346 346 346 347 346 346 346 346 346 346 345 345 345 344 344 344 344 344 345 345 346 346 346 347 347 347 346 346 346 346 346 346 346 346 346 346 345 342 339 338 337 335 333 332 330 329 330 332 332 332 330 329 329 329 328 327
306 312 316 318 320 322 324 325 324 322 322 324 326 327 327 325 325 326 328 332 334 334 334 336 338 340 342 344 345 345 345 346 346 346 346 346 345 345 346 346 345 344 344 343 343 343 343 343 343 344 344 345 345 345 345 346 346 346 346 346 346 346 346 345 346 346 346 345 344 341 340 339 339 339 337 335 334 335 336 335 335 333 331 331 332 331 329
308 313 317 320 322 323 324 323 322 321 322 323 325 326 325 324 324 325 327 331 333 333 334 336 338 340 343 344 345 345 345 345 346 345 345 344 343 344 344 344 343 342 342 342 342 342 342 342 342 343 343 344 344 344 344 344 345 345 345 345 346 346 346 346 346 347 347 347 346 345 343 342 342 341 340 337 335 336 337 337 336 335 333 333 334 333 332
309 314 318 321 322 322 322 321 319 320 321 322 324 325 325 324 323 324 327 330 332 333 334 336 338 341 343 344 345 345 344 344 344 344 343 342 342 342 343 342 341 341 341 341 341 341 341 341 341 342 342 342 343 343 343 343 344 344 345 345 346 347 347 347 347 348 348 348 347 346 345 343 342 342 340 337 336 337 338 338 337 336 334 335 334 333 332
309 314 318 320 320 320 320 319 318 319 320 321 322 324 325 325 324 324 326 328 331 333 334 335 338 341 343 344 344 344 343 343 343 342 342 341 341 341 341 341 340 340 340 340 340 340 340 340 341 341 341 341 341 341 342 342 343 344 344 345 346 347 348 348 348 348 348 348 347 347 345 343 342 341 340 337 337 338 339 338 337 335 334 335 334 333 332
309 313 316 318 318 318 318 317 317 318 320 321 322 324 326 327 325 324 325 327 330 332 333 334 337 341 342 343 343 343 342 342 341 341 340 340 340 341 341 340 340 340 339 339 339 339 339 339 340 340 340 340 340 340 341 341 342 343 344 345 347 348 348 348 348 349 349 348 347 346 344 342 341 341 339 338 337 338 339 338 336 335 335 335 334 333 333
308 312 314 315 315 316 316 316 317 318 320 321 322 324 328 329 326 324 325 327 329 331 332 334 338 341 342 343 342 341 341 341 340 340 340 340 340 340 340 339 339 338 339 339 338 338 338 338 338 338 339 339 339 339 339 340 341 342 343 345 347 348 349 349 349 350 350 349 347 346 344 342 342 342 340 339 339 339 338 338 337 336 335 335 335 334 334
307 309 310 312 314 314 314 315 317 318 321 323 324 326 328 329 327 325 325 327 329 331 332 335 339 341 342 341 340 340 340 340 340 340 339 339 339 339 339 338 338 338 338 338 337 337 337 337 337 338 338 338 338 338 338 339 340 341 343 345 346 348 349 350 350 350 351 350 349 346 344 343 343 343 341 339 338 338 338 337 337 337 336 336 335 335 335
304 306 309 311 312 312 313 315 316 319 322 324 325 325 326 327 325 325 326 328 330 330 333 337 340 341 341 340 339 339 339 340 340 339 338 338 338 338 338 337 337 337 337 337 336 336 336 336 337 337 337 337 337 337 338 339 340 341 343 345 346 347 348 350 351 351 351 351 350 348 345 343 343 342 339 338 338 338 338 337 337 337 337 336 336 336 336
301 305 309 311 311 311 313 315 317 321 324 324 323 323 323 324 324 324 327 328 329 331 335 339 340 340 340 339 338 338 339 339 339 338 338 337 337 337 337 337 336 336 336 336 335 335 335 335 336 336 336 336 337 337 338 339 339 341 343 345 346 347 348 349 351 352 353 352 351 348 345 343 342 340 339 338 338 339 338 338 337 337 337 336 337 337 337
302 307 309 309 309 311 314 317 320 323 322 321 320 320 321 322 324 326 328 329 331 335 338 339 339 338 338 338 338 338 339 338 337 337 337 337 336 336 336 336 335 335 335 335 334 334 335 335 335 336 336 336 336 337 338 338 339 341 344 346 347 348 348 350 351 353 353 352 351 348 346 344 343 341 339 338 338 338 339 338 337 337 337 336 337 337 338
305 307 308 309 312 315 319 321 321 320 319 318 319 320 322 324 326 328 329 331 334 337 338 338 338 337 337 337 338 339 338 337 336 336 337 336 335 335 334 334 334 334 334 334 334 334 334 335 335 335 336 336 337 337 338 338 339 341 345 347 348 348 349 350 350 352 352 352 350 347 345 344 344 342 339 338 338 338 338 338 338 337 337 336 337 337 338
306 307 310 313 317 320 321 320 319 318 318 320 322 324 326 328 330 331 332 334 336 337 337 337 338 337 336 337 338 338 338 336 336 336 336 335 334 334 333 334 334 334 334 334 334 334 334 334 334 335 336 336 337 338 338 339 340 342 345 347 348 348 349 349 349 351 352 352 350 348 346 345 344 343 341 340 340 339 339 339 340 339 338 337 338 339 340
308 312 315 319 320 321 320 320 320 321 323 325 327 329 331 332 332 333 334 335 336 336 336 337 337 337 337 337 337 337 337 336 336 336 335 335 334 333 333 334 334 334 334 334 334 334 334 334 335 336 336 337 337 338 339 339 341 343 345 347 348 348 348 349 350 351 352 352 350 348 346 345 344 343 342 342 342 342 341 341 341 341 339 339 339 341 341
315 319 321 321 322 323 323 324 326 327 329 331 332 333 333 333 334 334 334 335 336 336 336 336 335 335 335 336 336 336 335 335 335 335 335 334 334 334 334 335 335 334 334 334 334 334 334 335 336 336 337 337 337 338 339 340 342 344 345 346 347 347 348 349 350 351 351 351 350 348 346 344 343 342 342 342 343 343 343 343 342 341 340 340 340 341 342
322 324 325 325 327 329 330 331 332 333 334 334 334 334 334 334 334 334 335 335 335 334 334 334 334 334 334 335 335 335 334 334 334 334 334 334 334 335 335 335 335 334 334 335 335 335 335 336 336 337 336 337 338 339 340 341 343 344 344 345 346 347 348 349 350 351 351 351 350 348 346 344 343 342 342 342 343 343 344 344 343 342 340 340 341 342 342
328 329 330 332 333 335 336 336 336 336 336 335 335 335 335 334 334 334 333 333 332 332 332 333 333 333 333 334 334 334 333 333 333 334 334 334 334 335 335 335 335 335 335 335 335 336 336 336 337 336 336 337 338 339 340 342 343 344 344 345 346 347 348 349 350 351 351 351 350 348 346 345 344 343 342 342 343 343 344 344 344 342 341 340 341 343 343
336 337 338 338 338 339 339 338 337 336 336 335 335 335 334 333 332 332 331 331 331 332 333 333 332 332 332 333 333 333 332 332 332 333 333 333 334 334 335 335 334 335 335 335 335 336 336 336 336 336 336 337 338 339 340 341 342 343 344 344 345 347 348 349 350 351 351 351 350 348 347 346 345 344 342 342 342 344 344 344 344 343 341 341 341 343 344
343 343 342 341 340 339 338 337 336 336 335 335 334 333 332 331 330 330 330 330 331 332 332 332 331 331 332 333 333 332 332 332 332 333 333 333 333 334 334 334 334 334 334 334 335 335 335 336 336 336 336 337 338 339 340 341 341 343 344 345 345 346 348 349 350 351 351 351 349 348 347 346 345 344 343 342 341 343 344 344 344 343 341 341 341 342 344
345 344 342 341 339 338 337 336 336 335 335 333 332 330 329 329 329 329 329 330 331 332 331 331 331 331 332 333 332 332 332 332 333 334 334 334 333 334 334 333 333 333 333 333 334 334 335 335 336 335 335 336 338 339 340 340 341 342 344 345 345 346 348 349 350 350 351 351 349 348 347 346 345 345 344 343 342 342 343 344 344 343 341 341 341 342 343
344 343 341 340 338 337 336 336 335 333 332 331 329 329 328 329 330 331 331 332 332 332 332 331 331 332 333 332 332 332 332 333 333 334 334 333 333 333 333 333 332 332 332 332 333 334 334 335 335 335 335 336 338 339 339 340 341 342 344 344 345 346 348 349 350 350 351 350 349 348 347 346 345 345 345 344 342 341 342 343 343 342 341 341 341 342 343
343 341 340 338 336 335 333 332 331 330 329 329 328 328 329 330 331 332 333 333 333 333 332 332 332 332 332 332 331 331 332 332 332 333 333 333 333 333 332 332 332 331 331 332 333 333 334 334 334 334 335 336 338 338 339 340 341 342 343 344 345 346 348 349 349 350 350 350 349 348 347 346 345 345 345 344 343 341 342 343 343 342 341 340 341 343 344
344 342 340 338 335 333 332 331 330 330 330 330 330 329 330 330 331 332 332 332 331 331 331 331 331 331 330 330 330 330 330 330 331 331 331 332 332 332 332 332 331 331 331 331 332 333 333 334 334 335 335 336 337 338 339 340 340 341 343 344 344 346 348 349 349 349 349 349 349 348 347 346 345 344 344 345 344 342 341 342 342 341 340 340 341 343 345
348 346 344 342 340 338 337 336 335 334 333 332 331 331 331 331 331 331 331 330 330 329 329 329 329 329 328 328 328 328 329 329 330 330 330 330 331 331 331 331 331 331 331 331 332 332 333 334 334 335 335 336 337 338 338 339 340 341 342 343 344 346 347 348 349 349 349 349 349 348 347 346 344 343 343 344 344 342 341 341 342 341 341 340 341 343 346
345 344 343 342 342 341 340 340 339 338 337 335 333 333 332 332 332 331 330 329 329 328 328 328 328 327 327 327 327 327 328 328 329 329 329 330 330 331 331 330 331 331 331 331 332 332 333 334 334 334 335 336 336 337 338 339 340 341 342 343 344 345 347 348 348 349 349 349 348 347 346 345 344 342 342 343 344 343 342 341 341 342 342 341 341 343 345
340 339 338 338 338 338 337 337 337 336 336 335 334 333 333 333 332 331 330 329 328 328 327 327 327 326 326 326 326 326 327 328 328 328 328 329 329 330 330 330 330 330 330 331 332 332 333 333 334 334 335 336 336 337 338 339 340 341 342 343 344 345 346 347 348 349 349 348 347 346 346 345 344 342 342 342 344 344 343 342 342 342 342 342 341 342 343
337 336 335 335 334 334 334 333 333 332 332 332 331 331 331 331 331 331 330 329 329 328 328 327 326 325 325 325 325 325 326 327 327 327 327 328 329 329 329 330 330 330 330 331 331 332 332 333 334 334 335 335 336 337 338 339 340 341 342 342 343 344 345 346 347 348 349 348 347 346 345 345 344 342 341 341 342 343 343 342 341 341 342 342 342 341 341
Height
10721 10721 10721 10721 10722 10722 10722 10722 10722 10722 10721 10721 10720 10719 10718 10717 10716 10714 10713 10712 10711 10710 10708 10706 10705 10703 10700 10698 10696 10693 10690 10687 10684 10681 10677 10673 10670 10665 10661 10657 10652 10647 10642 10637 10633 10628 10624 10619 10614 10610 10604 10599 10593 10587 10581 10575 10569 10562 10555 10549 10542 10536 10533 10529 10523 10515 10505 10495 10488 10481 10471 10461 10451 10441 10433 10430 10429 10425 10417 10407 10401 10398 10392 10385 10379 10378 10382
10720 10720 10721 10721 10721 10722 10722 10722 10721 10721 10720 10719 10719 10717 10716 10715 10714 10713 10711 10710 10709 10707 10706 10704 10702 10700 10697 10695 10692 10689 10686 10682 10679 10676 10672 10668 10664 10659 10654 10650 10645 10641 10636 10632 10628 10624 10619 10614 10608 10603 10597 10591 10584 10578 10572 10566 10560 10554 10548 10541 10533 10526 10521 10516 10511 10505 10500 10497 10493 10485 10475 10462 10450 10439 10429 10423 10419 10413 10406 10396 10389 10383 10380 10377 10369 10364 10369
10720 10720 10720 10721 10721 10721 10721 10721 10720 10720 10719 10718 10717 10716 10715 10713 10712 10711 10710 10708 10707 10705 10703 10701 10699 10696 10694 10691 10688 10684 10681 10678 10674 10670 10666 10661 10657 10653 10648 10644 10640 10635 10631 10626 10622 10617 10612 10607 10601 10595 10589 10583 10576 10570 10564 10559 10553 10548 10542 10535 10527 10519 10511 10506 10499 10487 10479 10480 10478 10471 10465 10457 10445 10436 10427 10418 10410 10402 10393 10387 10380 10371 10368 10370 10361 10349 10353
10719 10720 10720 10720 10720 10720 10720 10720 10719 10718 10717 10716 10715 10714 10713 10712 10711 10709 10708 10706 10704 10702 10700 10697 10695 10692 10689 10686 10683 10680 10676 10673 10669 10665 10661 10656 10652 10648 10643 10639 10634 10629 10624 10619 10613 10608 10603 10598 10593 10587 10581 10575 10569 10563 10557 10552 10547 10542 10536 10529 10522 10515 10508 10501 10494 10480 10467 10465 10462 10452 10445 10439 10431 10425 10422 10415 10405 10395 10386 10380 10372 10361 10356 10361 10357 10341 10336
10719 10719 10719 10719 10719 10719 10719 10718 10717 10717 10716 10715 10714 10713 10711 10710 10709 10707 10705 10703 10701 10699 10696 10694 10691 10688 10685 10682 10679 10675 10671 10667 10663 10659 10656 10652 10647 10643 10639 10634 10629 10623 10618 10612 10606 10601 10596 10591 10586 10580 10574 10567 10561 10556 10550 10545 10540 10535 10530 10523 10517 10511 10505 10499 10492 10480 10466 10461 10458 10449 10438 10430 10419 10413 10412 10409 10401 10390 10382 10374 10366 10354 10345 10347 10347 10335 10325
10718 10718 10718 10718 10718 10718 10717 10717 10716 10715 10714 10713 10712 10711 10709 10708 10706 10704 10702 10700 10697 10695 10693 10690 10687 10684 10681 10678 10674 10670 10666 10662 10659 10655 10651 10647 10643 10639 10634 10629 10624 10619 10614 10609 10603 10597 10591 10585 10579 10574 10568 10561 10554 10548 10543 10538 10533 10528 10522 10516 10511 10506 10501 10497 10491 10479 10465 10458 10454 10445 10434 10425 10414 10404 10400 10397 10392 10382 10375 10368 10358 10347 10338 10332 10329 10322 10314
10718 10718 10717 10717 10717 10716 10716 10715 10714 10713 10712 10711 10710 10708 10706 10705 10703 10701 10699 10696 10694 10691 10689 10686 10684 10681 10677 10673 10669 10665 10661 10658 10654 10650 10647 10643 10637 10633 10629 10623 10618 10614 10609 10605 10600 10595 10589 10583 10576 10569 10563 10556 10550 10543 10537 10532 10527 10522 10516 10509 10504 10500 10495 10491 10489 10480 10464 10456 10451 10441 10429 10420 10410 10401 10393 10386 10381 10373 10365 10358 10351 10342 10333 10324 10316 10308 10302
10717 10716 10716 10716 10715 10715 10714 10713 10712 10711 10709 10708 10706 10705 10703 10701 10699 10697 10695 10693 10690 10688 10686 10683 10680 10676 10673 10669 10665 10661 10656 10653 10650 10645 10641 10637 10632 10627 10623 10618 10614 10609 10604 10599 10594 10589 10583 10577 10572 10565 10558 10551 10545 10539 10533 10528 10522 10516 10510 10503 10497 10493 10488 10482 10481 10477 10464 10454 10449 10439 10426 10414 10403 10395 10387 10378 10372 10367 10359 10351 10345 10338 10329 10318 10307 10297 10290
10716 10715 10715 10714 10714 10713 10712 10711 10710 10708 10707 10705 10704 10702 10700 10698 10696 10694 10692 10689 10687 10685 10682 10679 10676 10673 10669 10665 10661 10657 10653 10649 10645 10640 10635 10631 10627 10622 10618 10613 10609 10604 10600 10595 10589 10583 10576 10570 10565 10559 10552 10545 10539 10534 10528 10522 10517 10510 10503 10495 10488 10483 10479 10473 10470 10470 10462 10452 10447 10439 10426 10413 10400 10389 10381 10372 10364 10359 10352 10344 10336 10329 10318 10307 10298 10289 10280
10714 10714 10713 10712 10712 10711 10710 10708 10707 10705 10704 10703 10701 10699 10697 10695 10693 10691 10688 10686 10684 10681 10679 10676 10673 10669 10665 10660 10656 10653 10649 10644 10640 10636 10631 10627 10623 10618 10614 10610 10605 10601 10596 10590 10585 10579 10572 10565 10559 10554 10546 10538 10531 10525 10519 10513 10508 10504 10496 10489 10481 10474 10469 10462 10457 10457 10454 10445 10440 10434 10422 10410 10398 10386 10374 10364 10355 10348 10342 10337 10330 10320 10308 10295 10286 10278 10269
10712 10711 10711 10710 10709 10708 10707 10706 10704 10703 10702 10700 10698 10696 10694 10692 10690 10688 10685 10683 10680 10678 10676 10672 10669 10664 10660 10656 10652 10648 10645 10640 10636 10632 10627 10623 10619 10615 10610 10606 10602 10597 10592 10587 10582 10576 10568 10561 10555 10549 10541 10532 10523 10517 10511 10503 10498 10494 10486 10480 10473 10466 10459 10452 10443 10440 10440 10434 10429 10427 10418 10404 10392 10380 10368 10355 10344 10334 10327 10323 10318 10308 10295 10283 10273 10264 10255
10710 10709 10708 10708 10707 10705 10704 10703 10702 10701 10699 10697 10696 10694 10692 10690 10687 10685 10682 10680 10677 10675 10672 10668 10664 10660 10656 10652 10648 10644 10640 10636 10631 10627 10623 10619 10615 10611 10607 10603 10599 10594 10589 10584 10578 10571 10564 10556 10549 10543 10535 10526 10518 10512 10505 10496 10490 10485 10477 10470 10465 10457 10450 10443 10433 10426 10423 10419 10413 10410 10408 10398 10384 10373 10362 10348 10335 10323 10315 10311 10307 10296 10283 10272 10264 10255 10245
10707 10707 10706 10705 10704 10703 10702 10701 10699 10698 10697 10695 10693 10692 10690 10687 10684 10681 10679 10677 10674 10672 10668 10664 10660 10656 10652 10648 10644 10640 10635 10631 10627 10623 10619 10615 10611 10607 10603 10599 10595 10589 10584 10579 10574 10567 10561 10553 10545 10538 10531 10523 10515 10508 10500 10492 10485 10479 10470 10461 10455 10448 10440 10433 10425 10415 10409 10407 10401 10393 10391 10387 10376 10365 10356 10343 10330 10318 10309 10305 10301 10287 10272 10261 10252 10244 10234
10705 10704 10703 10702 10701 10701 10700 10699 10697 10696 10695 10693 10692 10689 10686 10684 10681 10678 10676 10674 10670 10667 10664 10660 10656 10652 10648 10644 10640 10636 10631 10628 10624 10620 10616 10612 10607 10603 10599 10594 10590 10585 10579 10574 10569 10563 10557 10551 10544 10538 10532 10525 10517 10510 10501 10491 10482 10475 10466 10456 10448 10440 10431 10423 10416 10406 10395 10391 10389 10382 10378 10376 10368 10356 10346 10331 10314 10300 10288 10282 10280 10268 10253 10241 10231 10222 10214
10702 10701 10701 10700 10700 10699 10698 10697 10696 10694 10693 10691 10689 10686 10683 10680 10677 10675 10673 10669 10666 10663 10660 10656 10652 10648 10645 10641 10636 10632 10628 10624 10621 10616 10612 10607 10603 10598 10594 10589 10584 10579 10574 10567 10562 10557 10551 10545 10538 10533 10527 10521 10515 10508 10500 10490 10480 10471 10461 10452 10443 10435 10424 10413 10406 10398 10386 10377 10373 10365 10359 10357 10351 10342 10334 10320 10302 10287 10273 10264 10260 10249 10235 10222 10212 10204 10198
10700 10700 10700 10699 10699 10698 10697 10695 10694 10693 10691 10689 10685 10682 10679 10677 10675 10672 10669 10665 10662 10659 10656 10652 10648 10645 10641 10637 10633 10629 10625 10621 10617 10612 10608 10603 10598 10593 10589 10584 10579 10573 10568 10561 10555 10548 10543 10536 10529 10521 10515 10509 10503 10498 10491 10483 10476 10467 10457 10448 10438 10430 10421 10409 10399 10391 10379 10366 10360 10350 10340 10335 10329 10322 10320 10311 10294 10278 10265 10255 10249 10241 10229 10216 10205 10196 10188
10699 10699 10699 10698 10697 10696 10695 10694 10692 10690 10688 10685 10682 10679 10676 10674 10672 10668 10664 10662 10659 10656 10652 10649 10645 10641 10638 10634 10630 10626 10622 10617 10613 10608 10603 10598 10593 10589 10584 10579 10573 10567 10561 10555 10548 10541 10535 10530 10523 10516 10508 10500 10493 10488 10479 10471 10465 10458 10449 10442 10433 10422 10413 10402 10391 10384 10372 10359 10353 10344 10331 10321 10311 10301 10297 10293 10281 10266 10251 10239 10234 10230 10220 10207 10194 10182 10171
10698 10697 10697 10696 10695 10694 10693 10691 10689 10687 10684 10682 10679 10676 10674 10671 10668 10664 10661 10659 10656 10652 10648 10645 10641 10638 10634 10631 10627 10622 10618 10614 10609 10604 10599 10593 10588 10584 10579 10574 10568 10562 10556 10550 10544 10538 10530 10523 10518 10512 10505 10496 10488 10481 10472 10460 10453 10447 10437 10429 10423 10415 10406 10395 10382 10375 10365 10351 10342 10334 10322 10310 10299 10287 10278 10272 10264 10253 10239 10225 10214 10204 10194 10183 10171 10159 10147
10696 10696 10695 10695 10693 10692 10691 10689 10686 10684 10681 10679 10676 10673 10670 10667 10664 10661 10658 10655 10652 10649 10645 10642 10638 10635 10631 10627 10623 10619 10615 10610 10605 10600 10594 10589 10584 10579 10574 10569 10563 10557 10551 10544 10539 10533 10526 10518 10511 10505 10499 10491 10483 10477 10469 10454 10441 10434 10426 10417 10409 10401 10396 10387 10373 10362 10354 10341 10330 10323 10314 10301 10290 10278 10267 10256 10243 10228 10214 10201 10190 10178 10166 10156 10148 10139 10128
10694 10694 10694 10693 10692 10690 10688 10686 10683 10681 10679 10676 10673 10670 10667 10664 10661 10659 10656 10653 10650 10646 10643 10639 10635 10632 10628 10624 10620 10616 10611 10607 10602 10596 10590 10585 10580 10575 10570 10565 10559 10553 10547 10540 10534 10528 10522 10514 10506 10497 10491 10484 10475 10469 10465 10454 10439 10426 10415 10408 10399 10388 10381 10376 10365 10354 10345 10334 10321 10310 10297 10283 10270 10258 10248 10238 10222 10204 10188 10176 10169 10162 10151 10140 10133 10126 10116
10693 10692 10691 10691 10690 10688 10686 10683 10681 10679 10676 10673 10670 10667 10664 10661 10659 10656 10653 10650 10647 10644 10640 10637 10633 10629 10625 10621 10617 10613 10608 10603 10598 10593 10587 10581 10575 10570 10565 10560 10554 10548 10542 10536 10529 10522 10515 10508 10500 10490 10483 10477 10468 10459 10453 10448 10439 10426 10411 10400 10393 10383 10372 10364 10355 10342 10330 10319 10309 10299 10284 10268 10254 10242 10231 10222 10212 10198 10182 10169 10162 10158 10150 10138 10128 10122 10113
10691 10690 10689 10689 10687 10685 10683 10680 10678 10676 10674 10671 10668 10665 10662 10659 10657 10654 10651 10648 10645 10641 10638 10634 10630 10627 10623 10618 10614 10609 10605 10600 10594 10589 10583 10577 10571 10565 10560 10553 10547 10541 10535 10528 10522 10514 10507 10500 10493 10484 10476 10469 10463 10454 10445 10435 10428 10422 10409 10394 10384 10375 10364 10354 10344 10332 10320 10309 10300 10295 10285 10270 10256 10246 10236 10228 10219 10209 10195 10181 10170 10162 10152 10140 10128 10120 10113
10689 10688 10687 10687 10685 10683 10680 10678 10676 10674 10671 10669 10666 10663 10661 10657 10654 10652 10649 10646 10642 10639 10635 10631 10628 10624 10620 10615 10611 10606 10601 10596 10591 10585 10579 10573 10567 10561 10555 10548 10541 10534 10528 10522 10515 10508 10500 10493 10486 10478 10468 10460 10452 10445 10438 10429 10419 10413 10406 10393 10380 10369 10360 10352 10342 10332 10324 10317 10309 10304 10298 10286 10271 10259 10247 10233 10221 10209 10195 10182 10171 10160 10149 10137 10124 10113 10106
10687 10686 10685 10684 10683 10680 10678 10676 10674 10671 10669 10666 10664 10661 10658 10655 10652 10649 10646 10643 10640 10636 10633 10629 10625 10621 10617 10612 10608 10603 10598 10593 10588 10582 10576 10570 10564 10557 10551 10544 10538 10530 10523 10516 10508 10501 10495 10487 10480 10472 10462 10452 10443 10434 10427 10420 10411 10402 10396 10390 10381 10371 10362 10356 10348 10337 10327 10317 10308 10301 10296 10284 10267 10253 10241 10226 10214 10204 10192 10179 10167 10156 10144 10134 10121 10109 10100
10684 10684 10683 10682 10680 10678 10676 10674 10671 10669 10667 10664 10662 10659 10656 10653 10650 10647 10644 10640 10637 10633 10630 10626 10622 10618 10614 10609 10605 10600 10595 10590 10585 10579 10572 10566 10560 10554 10547 10540 10533 10526 10519 10511 10504 10497 10489 10481 10473 10465 10456 10446 10438 10428 10417 10409 10400 10390 10382 10375 10369 10363 10355 10349 10344 10334 10321 10308 10296 10289 10288 10282 10267 10251 10237 10222 10211 10203 10192 10179 10165 10152 10140 10131 10121 10107 10096
10682 10682 10681 10679 10677 10675 10673 10671 10669 10666 10664 10662 10659 10656 10653 10650 10647 10644 10641 10638 10634 10631 10627 10623 10619 10615 10610 10606 10602 10597 10592 10587 10581 10575 10569 10562 10556 10550 10543 10536 10529 10521 10514 10507 10500 10491 10484 10475 10466 10458 10450 10441 10431 10421 10412 10403 10394 10384 10374 10364 10355 10347 10339 10332 10328 10323 10314 10304 10291 10278 10273 10270 10259 10241 10223 10206 10194 10187 10179 10167 10155 10142 10131 10124 10116 10103 10089
10680 10679 10678 10677 10675 10672 10670 10668 10666 10664 10661 10659 10656 10653 10650 10647 10644 10642 10639 10636 10632 10629 10625 10621 10617 10612 10608 10603 10599 10594 10589 10584 10578 10572 10565 10559 10552 10546 10540 10533 10526 10519 10511 10504 10495 10486 10477 10470 10461 10453 10445 10437 10427 10417 10408 10400 10392 10382 10371 10360 10348 10338 10328 10319 10311 10305 10296 10285 10271 10252 10238 10233 10226 10212 10195 10180 10170 10164 10158 10150 10140 10130 10119 10112 10107 10099 10086
10678 10677 10676 10674 10672 10670 10668 10665 10663 10661 10659 10656 10654 10651 10648 10644 10642 10639 10636 10633 10630 10626 10622 10618 10614 10609 10605 10600 10596 10591 10586 10581 10575 10569 10563 10556 10549 10543 10537 10530 10523 10516 10508 10499 10491 10482 10473 10465 10456 10448 10440 10432 10424 10415 10405 10396 10388 10379 10368 10356 10344 10331 10317 10301 10289 10279 10270 10261 10250 10234 10218 10208 10201 10192 10178 10162 10152 10146 10140 10131 10123 10113 10103 10097 10093 10088 10082
10675 10675 10673 10672 10669 10667 10665 10663 10661 10659 10656 10654 10651 10648 10645 10642 10639 10636 10633 10631 10627 10624 10620 10616 10611 10607 10602 10597 10592 10588 10583 10578 10572 10566 10559 10552 10545 10539 10533 10526 10518 10511 10503 10494 10486 10477 10469 10460 10451 10442 10434 10427 10420 10412 10403 10393 10384 10375 10364 10353 10341 10327 10311 10295 10279 10267 10258 10249 10240 10228 10212 10198 10189 10181 10168 10151 10138 10131 10124 10115 10106 10099 10091 10085 10081 10075 10072
10673 10672 10670 10669 10667 10665 10663 10661 10659 10656 10653 10651 10648 10646 10643 10639 10636 10634 10631 10628 10625 10621 10617 10613 10609 10604 10599 10594 10589 10585 10579 10574 10568 10562 10555 10548 10541 10535 10528 10521 10513 10504 10497 10489 10481 10472 10464 10455 10446 10437 10429 10422 10414 10406 10397 10388 10380 10370 10360 10350 10339 10326 10312 10298 10283 10268 10254 10242 10233 10224 10212 10197 10186 10178 10167 10151 10137 10128 10120 10110 10099 10091 10084 10077 10072 10066 10060
10670 10669 10667 10666 10664 10662 10660 10658 10656 10653 10651 10648 10645 10642 10640 10637 10634 10631 10629 10626 10623 10619 10615 10611 10606 10601 10596 10592 10587 10582 10576 10570 10565 10559 10552 10544 10537 10530 10522 10514 10507 10500 10493 10485 10477 10468 10459 10451 10443 10434 10425 10417 10409 10400 10391 10383 10374 10366 10357 10349 10339 10327 10314 10300 10287 10272 10256 10239 10227 10220 10213 10202 10189 10177 10165 10152 10140 10130 10122 10112 10100 10089 10080 10072 10064 10056 10050
10667 10666 10664 10663 10661 10659 10657 10655 10653 10650 10647 10644 10642 10639 10637 10634 10631 10628 10626 10623 10620 10617 10612 10608 10603 10599 10594 10589 10584 10579 10573 10567 10561 10554 10547 10540 10533 10525 10517 10510 10502 10495 10489 10481 10473 10465 10457 10449 10441 10432 10423 10413 10404 10395 10386 10377 10368 10359 10351 10343 10335 10326 10314 10300 10285 10272 10258 10240 10221 10205 10196 10189 10179 10165 10150 10137 10127 10119 10113 10108 10099 10087 10077 10068 10060 10051 10043
10664 10663 10662 10660 10658 10656 10654 10652 10650 10647 10645 10641 10638 10635 10633 10630 10628 10625 10623 10620 10617 10614 10610 10605 10601 10596 10591 10587 10582 10577 10571 10565 10558 10550 10543 10536 10531 10523 10515 10507 10500 10493 10486 10478 10470 10462 10454 10447 10438 10429 10420 10411 10402 10392 10381 10370 10359 10349 10340 10331 10323 10316 10308 10298 10284 10270 10257 10243 10224 10201 10181 10169 10163 10154 10142 10130 10121 10111 10102 10097 10093 10085 10075 10066 10058 10050 10042
10661 10660 10658 10657 10655 10653 10652 10650 10647 10645 10642 10639 10636 10632 10630 10627 10624 10622 10620 10617 10614 10611 10607 10602 10598 10593 10588 10583 10578 10573 10567 10561 10556 10549 10542 10535 10529 10523 10514 10505 10497 10490 10482 10474 10467 10459 10451 10443 10434 10426 10417 10407 10397 10387 10377 10365 10352 10341 10331 10322 10312 10304 10299 10295 10285 10271 10255 10241 10227 10210 10189 10172 10161 10155 10146 10136 10126 10116 10103 10092 10085 10080 10073 10065 10057 10049 10042
10658 10657 10656 10654 10653 10651 10649 10647 10645 10642 10639 10636 10633 10630 10627 10624 10622 10619 10617 10614 10611 10608 10604 10599 10595 10591 10586 10580 10574 10568 10562 10556 10551 10546 10540 10532 10525 10519 10512 10503 10494 10487 10479 10471 10463 10455 10447 10438 10429 10421 10411 10402 10391 10381 10370 10359 10348 10338 10327 10316 10303 10292 10282 10275 10269 10260 10246 10233 10222 10211 10196 10178 10163 10151 10140 10130 10121 10114 10105 10094 10084 10075 10067 10059 10052 10045 10038
10655 10654 10653 10651 10650 10648 10646 10644 10642 10639 10636 10633 10630 10627 10624 10622 10619 10617 10614 10611 10608 10604 10600 10596 10592 10588 10584 10579 10573 10567 10560 10554 10548 10542 10536 10529 10521 10514 10507 10499 10491 10483 10476 10467 10458 10450 10441 10433 10424 10415 10405 10394 10384 10373 10361 10349 10339 10329 10319 10306 10292 10278 10264 10253 10245 10240 10234 10226 10217 10209 10198 10184 10167 10150 10135 10122 10113 10106 10100 10092 10084 10076 10067 10058 10049 10042 10035
10652 10651 10650 10648 10647 10645 10643 10641 10638 10636 10633 10630 10627 10624 10622 10619 10617 10614 10611 10608 10604 10600 10597 10593 10588 10584 10580 10575 10570 10564 10557 10551 10544 10539 10533 10525 10518 10511 10504 10496 10489 10480 10472 10463 10454 10444 10435 10426 10418 10410 10400 10389 10377 10366 10354 10341 10327 10315 10304 10292 10279 10266 10253 10241 10232 10227 10223 10216 10208 10201 10194 10187 10175 10159 10143 10128 10115 10106 10098 10090 10082 10075 10067 10058 10050 10042 10034
10649 10648 10647 10646 10644 10642 10640 10637 10635 10632 10629 10627 10625 10622 10619 10617 10614 10611 10608 10604 10600 10596 10592 10588 10584 10578 10573 10567 10563 10558 10553 10546 10539 10533 10528 10521 10513 10505 10498 10491 10484 10475 10466 10457 10448 10439 10429 10420 10411 10403 10394 10383 10372 10361 10349 10336 10321 10307 10294 10282 10269 10257 10246 10235 10223 10213 10204 10194 10183 10172 10166 10163 10161 10154 10143 10131 10117 10104 10093 10085 10078 10069 10060 10051 10045 10038 10031
10647 10646 10645 10643 10641 10639 10637 10634 10631 10629 10627 10625 10622 10619 10617 10614 10611 10607 10604 10600 10596 10592 10588 10584 10580 10574 10568 10561 10556 10551 10546 10540 10533 10527 10521 10514 10507 10499 10492 10485 10477 10468 10459 10450 10442 10434 10425 10415 10406 10396 10386 10376 10366 10356 10343 10329 10315 10301 10289 10277 10266 10255 10245 10233 10219 10206 10195 10184 10171 10157 10144 10136 10133 10130 10125 10120 10112 10102 10089 10079 10071 10064 10055 10045 10038 10033 10027
10645 10644 10642 10640 10638 10636 10634 10631 10629 10627 10624 10622 10619 10616 10613 10610 10607 10603 10600 10596 10593 10588 10584 10580 10575 10570 10564 10559 10553 10546 10540 10534 10529 10522 10515 10508 10500 10491 10484 10477 10470 10461 10453 10444 10435 10427 10417 10408 10398 10388 10379 10369 10360 10350 10337 10324 10309 10295 10284 10275 10266 10255 10244 10231 10218 10206 10196 10188 10178 10164 10148 10134 10124 10116 10109 10103 10097 10092 10085 10076 10066 10058 10051 10043 10035 10028 10022
10643 10642 10640 10638 10636 10634 10631 10629 10627 10624 10622 10619 10616 10613 10610 10606 10603 10599 10596 10593 10589 10585 10580 10575 10570 10564 10558 10553 10548 10541 10535 10529 10523 10517 10510 10502 10494 10485 10477 10470 10462 10453 10445 10436 10427 10418 10409 10399 10390 10380 10371 10361 10352 10342 10330 10318 10305 10291 10279 10271 10263 10253 10242 10232 10221 10209 10197 10187 10177 10166 10153 10138 10124 10113 10104 10095 10086 10080 10075 10070 10063 10054 10045 10039 10032 10026 10019
10641 10639 10638 10636 10634 10632 10629 10627 10624 10622 10619 10616 10613 10609 10606 10602 10599 10595 10592 10589 10585 10580 10576 10570 10565 10560 10554 10548 10542 10536 10529 10523 10517 10511 10504 10496 10488 10480 10472 10463 10455 10446 10437 10428 10419 10410 10401 10392 10383 10373 10363 10353 10343 10332 10321 10310 10299 10288 10275 10265 10256 10247 10236 10226 10216 10206 10194 10183 10172 10161 10149 10135 10121 10108 10098 10090 10083 10074 10065 10059 10055 10048 10040 10033 10028 10022 10016
10639 10637 10635 10633 10631 10629 10627 10624 10622 10619 10616 10613 10609 10605 10602 10598 10595 10591 10588 10584 10580 10575 10570 10564 10558 10553 10547 10541 10535 10528 10522 10516 10511 10504 10497 10489 10482 10474 10466 10457 10448 10439 10430 10421 10412 10403 10394 10386 10376 10366 10355 10345 10335 10324 10314 10304 10296 10287 10276 10263 10251 10241 10230 10219 10209 10201 10191 10180 10168 10156 10144 10131 10117 10103 10091 10082 10077 10072 10063 10054 10046 10039 10032 10026 10021 10017 10013
10636 10635 10633 10631 10629 10627 10624 10621 10618 10615 10612 10608 10605 10601 10597 10593 10590 10586 10582 10578 10574 10569 10564 10559 10553 10547 10542 10535 10528 10521 10515 10509 10504 10498 10491 10482 10474 10467 10460 10451 10442 10433 10424 10416 10407 10398 10388 10379 10369 10358 10348 10340 10331 10320 10309 10299 10289 10280 10272 10260 10247 10236 10226 10215 10204 10194 10186 10176 10164 10153 10142 10129 10117 10104 10091 10078 10070 10066 10061 10054 10046 10036 10027 10019 10012 10008 10006
10634 10632 10630 10628 10626 10623 10621 10618 10615 10611 10608 10604 10600 10597 10593 10589 10585 10582 10577 10573 10568 10563 10559 10553 10547 10542 10536 10530 10523 10516 10509 10503 10497 10491 10484 10476 10468 10460 10453 10445 10436 10428 10420 10412 10404 10394 10384 10374 10364 10353 10343 10335 10326 10314 10303 10291 10280 10269 10260 10252 10241 10230 10219 10208 10197 10186 10177 10167 10156 10146 10135 10125 10113 10102 10090 10077 10065 10058 10054 10050 10044 10037 10028 10019 10011 10003 9998
10631 10629 10627 10625 10622 10619 10616 10613 10610 10607 10604 10600 10596 10592 10588 10584 10581 10577 10572 10567 10562 10557 10552 10547 10542 10536 10529 10523 10516 10510 10503 10496 10490 10484 10477 10470 10462 10454 10446 10438 10429 10421 10413 10405 10397 10388 10378 10368 10357 10346 10335 10327 10318 10308 10296 10284 10272 10260 10250 10241 10231 10221 10211 10200 10190 10179 10170 10161 10151 10140 10129 10118 10107 10097 10087 10075 10064 10055 10050 10044 10038 10031 10024 10017 10011 10005 9997
10627 10625 10623 10620 10617 10615 10612 10609 10606 10603 10600 10596 10592 10587 10583 10579 10576 10572 10567 10562 10557 10552 10546 10540 10536 10530 10523 10516 10509 10503 10496 10489 10483 10477 10470 10463 10455 10447 10439 10431 10422 10412 10404 10396 10388 10378 10369 10360 10349 10337 10326 10317 10309 10300 10289 10277 10265 10254 10243 10234 10224 10214 10203 10193 10182 10172 10163 10154 10145 10134 10123 10113 10102 10092 10084 10074 10063 10053 10046 10041 10035 10028 10020 10013 10008 10003 9997
10623 10621 10619 10616 10614 10611 10609 10606 10602 10599 10595 10591 10587 10582 10577 10573 10570 10566 10561 10556 10551 10546 10540 10534 10529 10523 10517 10510 10503 10496 10490 10483 10477 10470 10463 10456 10449 10442 10434 10426 10416 10406 10395 10387 10379 10370 10360 10351 10341 10329 10318 10309 10300 10291 10281 10270 10258 10246 10236 10226 10216 10207 10197 10187 10176 10166 10156 10147 10137 10126 10115 10106 10096 10087 10079 10071 10061 10051 10043 10037 10031 10025 10017 10010 10004 9999 9994
10620 10618 10616 10613 10610 10607 10604 10601 10598 10594 10590 10586 10581 10577 10572 10568 10564 10560 10556 10551 10545 10540 10534 10528 10523 10517 10511 10504 10498 10491 10484 10477 10471 10464 10457 10449 10442 10434 10426 10418 10410 10400 10389 10380 10371 10362 10353 10343 10333 10322 10312 10303 10294 10284 10275 10264 10253 10241 10229 10219 10209 10199 10190 10180 10170 10159 10148 10138 10129 10120 10110 10100 10091 10082 10075 10068 10060 10050 10041 10035 10028 10021 10012 10004 9998 9993 9989
10617 10614 10611 10609 10606 10603 10599 10596 10593 10589 10585 10580 10576 10571 10567 10563 10559 10554 10549 10544 10539 10534 10528 10522 10516 10510 10504 10497 10491 10485 10478 10471 10464 10457 10450 10443 10436 10428 10419 10411 10402 10393 10383 10373 10364 10354 10345 10335 10326 10316 10306 10296 10286 10276 10267 10258 10248 10237 10225 10213 10201 10191 10182 10174 10165 10155 10144 10134 10124 10116 10107 10097 10086 10076 10069 10063 10056 10047 10037 10029 10023 10017 10009 10000 9992 9987 9984
10613 10610 10607 10603 10600 10597 10594 10590 10587 10583 10579 10575 10570 10566 10562 10557 10553 10548 10543 10538 10532 10527 10521 10515 10509 10503 10497 10491 10484 10478 10473 10466 10458 10450 10443 10436 10429 10421 10413 10404 10395 10386 10377 10368 10358 10348 10339 10330 10319 10309 10300 10291 10281 10270 10261 10251 10241 10230 10218 10206 10195 10185 10177 10169 10162 10153 10142 10131 10121 10112 10104 10095 10083 10071 10062 10056 10051 10043 10034 10024 10017 10011 10005 9998 9990 9984 9980
10608 10605 10602 10599 10596 10593 10589 10586 10582 10578 10574 10569 10565 10561 10556 10552 10547 10542 10536 10531 10526 10520 10514 10508 10501 10495 10489 10483 10477 10471 10465 10459 10451 10443 10435 10429 10422 10414 10406 10398 10388 10378 10369 10362 10353 10344 10335 10326 10315 10303 10293 10283 10273 10262 10252 10243 10234 10224 10213 10202 10191 10181 10172 10164 10157 10149 10140 10129 10118 10107 10099 10091 10081 10070 10060 10053 10048 10042 10035 10026 10018 10011 10005 9998 9989 9982 9976